Volver al catálogo

STARLINK-11433

ActivoComunicacionesVLEO
NORAD 62008·PAYLOAD·🇺🇸 United States

Lanzado Nov 18, 2024 desde Vandenberg Space Force Base

Loading…

Próximos Pases (próximas 24 horas)

TLE

ActualizadoSource: CelesTrak SupGP

Época: Sep 14, 2026, 22:47 UTC

1 62008C 24213A   26257.94979167 -.00052425  00000+0 -43163-3 0  2578
2 62008  53.1575 188.1037 0001234  94.5534 241.4778 15.69747143    13

Sigue STARLINK-11433 en tiempo real con AllMySat

Download on the App Store